COSMOS 1275 DEB, 12698

Orbit data source: Space-Track

COSMOS 1275 DEB, 12698 is space debris in LEO originally from a launch on Thu, 04 Jun 1981 UTC launched from the Plesetsk Missile And Space Complex (PKMTR). Debris objects in space refer to the collection of defunct objects orbiting the Earth. Examples of debris include non-operational satellites, rocket bodies, and fragments generated from explosions, collisions, or faulty payload assembly.

Loading next visibility...
Identifier
12698, 1981-053AS
Orbit
LEO
Country
Flag of CISCIS
Related business
Manufacturer
Unknown
Mission
Spacecraft
Bus & Motor
Unknown
Mass
Unknown
Launch date (UTC)
1981-06-04 (44 years ago)
Launch vehicle
Unknown
Launch site
Plesetsk Missile And Space Complex (PKMTR)
Object type
Payload
Rocket body
Debris
Shape & HBR
Unknown shape, 0.1 m
Radar Cross Section
Small (<0.1 m²)

Expand to show TLE details & history
Last TLE update: 1 day ago

TLE from 1 day ago
0 COSMOS 1275 DEB
1 12698U 81053AS  25308.07425831  .00006001  00000-0  21846-2 0  9991
2 12698  82.8995 235.8138 0012944 359.3356   0.7813 14.33002536259229
Epoch: 2025-11-04T01:46Z
TLE epoch observation values (Epoch: 2025-11-04T01:46:55.917Z)
Latitude
-0.00002°
Longitude
165.51431°
Altitude
775.423 km
Speed
7.471 km/s
True Right ascension
15h 43m 15s
True Declination
0° 00' 00"
Sunlit
Object was in daylight at epoch
Visualization orbit readout
Latitude
Unknown
Longitude
Unknown
Altitude
Unknown
Speed
Unknown
Apparent Right ascension
Unknown
Apparent Declination
Unknown
Sunlit
N/A
Visualization observer readout
Local Sidereal Time
22:53:24
Azimuth
Unknown
Elevation
Unknown
Doppler factor
Unknown
Orbital elements
Apogee altitude
788.047 km
Perigee altitude
769.519 km
Semi-major axis
7,156.92 km
Eccentricity
0.00129
Inclination
82.8995°
RAAN
235.8138°
Arg. of periapsis
359.3356°
True anomaly
0.78333°
Mean anomaly
0.7813°
Eccentric anomaly
0.78231°
Mean motion
3.58471 °/min
Orbital period
100.43 mins
BSTAR
0.0021846
Loading maneuver chart data...
Computing Atmospheric mass density...
Loading historical data...
Loading historical data...
Loading historical data...
Loading historical data...
Loading historical data...
Loading historical data...
Loading historical data...

Documentation

Showing up to 5 results
|